Total_Precipitation_Accumulation
0.05 0.05 0.12 0.12 0.12 0.10 0.09 0.08 0.08 0.07 0.07 0.08 0.10 0.13 0.14 0.15 0.15 0.16 0.18 0.23 0.26 0.21 0.22 0.25 0.23 0.21 0.21 0.21 0.20 0.19 0.15 0.12 0.11 0.11 0.15 0.19 0.16 0.12 0.12 0.13 0.11 0.17 0.22
0.04 0.05 0.07 0.07 0.07 0.06 0.06 0.05 0.05 0.05 0.05 0.06 0.06 0.09 0.11 0.13 0.14 0.15 0.19 0.24 0.28 0.23 0.22 0.24 0.26 0.28 0.26 0.26 0.26 0.24 0.17 0.11 0.09 0.09 0.10 0.12 0.14 0.12 0.11 0.12 0.13 0.26 0.29
0.02 0.03 0.04 0.05 0.05 0.05 0.04 0.04 0.04 0.04 0.04 0.04 0.04 0.05 0.07 0.10 0.13 0.16 0.19 0.21 0.24 0.27 0.26 0.26 0.35 0.37 0.35 0.34 0.32 0.29 0.22 0.12 0.07 0.07 0.07 0.15 0.20 0.19 0.16 0.14 0.13 0.17 0.22
0.01 0.02 0.02 0.04 0.05 0.04 0.04 0.04 0.03 0.03 0.04 0.04 0.04 0.04 0.06 0.09 0.11 0.15 0.21 0.23 0.27 0.36 0.39 0.42 0.48 0.46 0.41 0.36 0.33 0.29 0.27 0.18 0.09 0.07 0.05 0.15 0.29 0.29 0.25 0.20 0.15 0.16 0.20
0.00 0.01 0.02 0.03 0.04 0.04 0.04 0.04 0.04 0.03 0.04 0.05 0.04 0.04 0.05 0.07 0.10 0.14 0.17 0.23 0.29 0.41 0.42 0.41 0.44 0.43 0.39 0.37 0.32 0.34 0.38 0.27 0.13 0.05 0.04 0.10 0.24 0.35 0.30 0.29 0.23 0.18 0.18
0.00 0.00 0.01 0.03 0.04 0.04 0.05 0.05 0.04 0.04 0.04 0.05 0.05 0.05 0.05 0.06 0.08 0.11 0.14 0.15 0.20 0.28 0.30 0.34 0.38 0.38 0.37 0.34 0.29 0.32 0.42 0.37 0.15 0.04 0.05 0.08 0.19 0.34 0.32 0.31 0.27 0.22 0.18
0.00 0.00 0.00 0.02 0.03 0.04 0.05 0.05 0.05 0.04 0.04 0.05 0.06 0.07 0.07 0.07 0.09 0.10 0.10 0.10 0.11 0.14 0.18 0.27 0.35 0.41 0.40 0.34 0.29 0.34 0.43 0.34 0.13 0.10 0.12 0.12 0.17 0.24 0.35 0.36 0.30 0.26 0.23
0.00 0.00 0.00 0.01 0.02 0.03 0.05 0.05 0.06 0.06 0.06 0.06 0.08 0.09 0.09 0.10 0.12 0.14 0.12 0.10 0.09 0.09 0.13 0.18 0.29 0.47 0.47 0.35 0.33 0.39 0.38 0.21 0.08 0.08 0.11 0.15 0.18 0.29 0.58 0.65 0.45 0.33 0.30
0.00 0.00 0.00 0.00 0.01 0.01 0.03 0.05 0.07 0.08 0.09 0.09 0.09 0.10 0.10 0.10 0.11 0.15 0.14 0.13 0.14 0.13 0.12 0.14 0.22 0.42 0.45 0.38 0.38 0.43 0.31 0.12 0.04 0.11 0.10 0.19 0.17 0.37 0.71 0.80 0.66 0.46 0.36
0.00 0.00 0.00 0.00 0.00 0.01 0.02 0.04 0.08 0.09 0.09 0.09 0.08 0.07 0.07 0.08 0.08 0.10 0.10 0.09 0.11 0.15 0.14 0.13 0.15 0.27 0.34 0.35 0.43 0.40 0.18 0.06 0.02 0.07 0.17 0.17 0.15 0.40 0.79 0.88 0.80 0.65 0.50
0.00 0.00 0.00 0.00 0.00 0.00 0.01 0.03 0.05 0.06 0.06 0.06 0.06 0.07 0.08 0.07 0.07 0.07 0.06 0.05 0.08 0.12 0.13 0.16 0.16 0.21 0.26 0.25 0.32 0.26 0.09 0.04 0.04 0.08 0.16 0.15 0.17 0.38 0.75 0.92 0.86 0.78 0.68
0.00 0.00 0.00 0.00 0.00 0.00 0.00 0.01 0.02 0.03 0.03 0.04 0.05 0.06 0.08 0.10 0.10 0.09 0.07 0.07 0.09 0.10 0.13 0.18 0.20 0.20 0.20 0.19 0.31 0.26 0.12 0.09 0.09 0.06 0.09 0.08 0.19 0.38 0.63 0.83 0.92 0.85 0.80
0.00 0.00 0.00 0.00 0.00 0.00 0.00 0.00 0.01 0.02 0.04 0.06 0.07 0.10 0.14 0.16 0.15 0.12 0.10 0.09 0.09 0.09 0.12 0.16 0.21 0.20 0.25 0.39 0.53 0.42 0.28 0.22 0.13 0.07 0.04 0.05 0.14 0.29 0.48 0.65 0.85 0.96 0.95
0.00 0.00 0.00 0.00 0.00 0.00 0.00 0.00 0.00 0.00 0.02 0.04 0.07 0.09 0.11 0.13 0.11 0.10 0.07 0.06 0.07 0.09 0.11 0.14 0.17 0.21 0.24 0.31 0.36 0.33 0.27 0.24 0.17 0.12 0.07 0.06 0.09 0.15 0.28 0.44 0.64 0.89 0.98
0.00 0.00 0.00 0.00 0.00 0.00 0.00 0.00 0.00 0.00 0.00 0.01 0.02 0.03 0.04 0.05 0.06 0.06 0.04 0.03 0.03 0.05 0.07 0.08 0.10 0.12 0.16 0.20 0.20 0.21 0.22 0.21 0.17 0.16 0.14 0.10 0.09 0.11 0.17 0.29 0.42 0.66 0.91
0.00 0.00 0.00 0.00 0.00 0.00 0.00 0.00 0.00 0.00 0.00 0.00 0.01 0.01 0.01 0.01 0.02 0.02 0.01 0.01 0.01 0.02 0.03 0.06 0.06 0.07 0.09 0.14 0.14 0.14 0.15 0.14 0.13 0.14 0.15 0.15 0.12 0.11 0.16 0.23 0.31 0.43 0.68
0.00 0.00 0.00 0.00 0.00 0.00 0.00 0.00 0.00 0.00 0.00 0.00 0.00 0.00 0.00 0.00 0.00 0.00 0.01 0.01 0.00 0.01 0.05 0.10 0.13 0.15 0.15 0.17 0.16 0.18 0.17 0.16 0.15 0.17 0.18 0.18 0.18 0.16 0.17 0.27 0.32 0.35 0.49
0.00 0.00 0.00 0.00 0.00 0.00 0.00 0.00 0.00 0.00 0.00 0.00 0.00 0.00 0.00 0.01 0.02 0.02 0.02 0.01 0.01 0.01 0.05 0.10 0.17 0.20 0.20 0.22 0.22 0.25 0.26 0.26 0.21 0.22 0.24 0.21 0.21 0.20 0.19 0.23 0.32 0.37 0.47
0.00 0.00 0.00 0.00 0.00 0.00 0.00 0.00 0.00 0.00 0.00 0.00 0.00 0.00 0.00 0.01 0.02 0.03 0.03 0.03 0.02 0.03 0.05 0.09 0.13 0.17 0.20 0.24 0.26 0.28 0.33 0.35 0.32 0.28 0.25 0.23 0.23 0.21 0.22 0.24 0.28 0.32 0.42
0.00 0.00 0.00 0.00 0.00 0.00 0.00 0.00 0.00 0.00 0.00 0.00 0.00 0.00 0.00 0.00 0.01 0.01 0.02 0.03 0.04 0.06 0.08 0.10 0.13 0.15 0.18 0.24 0.29 0.29 0.34 0.36 0.35 0.31 0.29 0.30 0.30 0.24 0.23 0.24 0.26 0.27 0.30
0.00 0.00 0.00 0.00 0.00 0.00 0.00 0.00 0.00 0.00 0.00 0.00 0.00 0.00 0.00 0.00 0.00 0.00 0.00 0.01 0.02 0.04 0.07 0.10 0.11 0.11 0.12 0.17 0.21 0.20 0.20 0.23 0.27 0.26 0.25 0.28 0.32 0.35 0.34 0.31 0.29 0.28 0.29
0.00 0.00 0.00 0.00 0.00 0.00 0.00 0.00 0.00 0.00 0.00 0.00 0.00 0.00 0.00 0.00 0.00 0.00 0.00 0.00 0.00 0.01 0.01 0.02 0.03 0.05 0.05 0.08 0.15 0.20 0.17 0.15 0.16 0.17 0.18 0.22 0.28 0.35 0.39 0.40 0.39 0.36 0.33
0.00 0.00 0.00 0.00 0.00 0.00 0.00 0.00 0.00 0.00 0.00 0.00 0.00 0.00 0.00 0.00 0.00 0.00 0.00 0.00 0.00 0.01 0.01 0.01 0.02 0.03 0.04 0.04 0.08 0.23 0.32 0.24 0.16 0.12 0.14 0.16 0.19 0.21 0.24 0.29 0.34 0.38 0.38
0.00 0.00 0.00 0.00 0.00 0.00 0.00 0.00 0.00 0.00 0.00 0.00 0.00 0.00 0.00 0.00 0.00 0.00 0.00 0.00 0.01 0.01 0.01 0.01 0.02 0.03 0.05 0.06 0.06 0.11 0.21 0.26 0.32 0.21 0.07 0.06 0.08 0.10 0.12 0.15 0.19 0.24 0.29
0.00 0.00 0.00 0.00 0.00 0.00 0.00 0.00 0.00 0.00 0.00 0.00 0.00 0.00 0.00 0.00 0.00 0.00 0.01 0.01 0.01 0.01 0.01 0.02 0.02 0.03 0.05 0.07 0.10 0.11 0.10 0.11 0.20 0.34 0.16 0.03 0.03 0.05 0.08 0.10 0.14 0.18 0.23
0.00 0.00 0.00 0.00 0.00 0.00 0.00 0.00 0.00 0.00 0.00 0.00 0.00 0.00 0.00 0.00 0.00 0.01 0.01 0.01 0.02 0.02 0.02 0.03 0.04 0.05 0.06 0.08 0.10 0.13 0.18 0.22 0.21 0.29 0.26 0.11 0.05 0.03 0.05 0.07 0.10 0.15 0.22